Terminal Aerodrome Forecast
Issued by NWS Amarillo, TX

Home | Current Version | Previous Version | Text Only | Print | Product List | Glossary On
Versions: 1 2 3 4 5 6 7 8 9 10 11 12 13 14 15 16 17 18 19 20 21 22 23 24
146
FTUS44 KAMA 042325
TAFGUY
TAF
KGUY 042325Z 0500/0524 20010KT P6SM SKC
     FM051400 23012KT P6SM SCT300
     FM052000 34010KT P6SM SCT300=

USA.gov is the U.S. government's official web portal to all federal, state and local government web resources and services.